Weather in Târgu Jiu

Romania     45°03′02″N   23°18′23″E
temp.,
°C
wind,
m/s
gust,
m/s
humid.,
%
clouds,
%
prec.,
mm/h
press.,
hPa
HPBL,
m
13 may, thu
thu1300:00+14ssw2474100 0.4 1007103
03:00+12ene1193100 5.1 100721
06:00+12se1194100 0.1 100745
09:00+12e239399 0.5 1008331
12:00+14ene228645 0.9 1007424
15:00+17ssw2370100 3.4 1006868
18:00+17sse2275100 2.4 1005521
21:00+13ssw2290100 3.4 100648
14 may, fri
fri1400:00+11s1192100 0.3 100712
03:00+10ssw119399 0.3 100710
06:00+9ese0192100 0.0 100810
09:00+13s118175 0.0 1009309
12:00+18w346028 0.3 10091094
15:00+20wsw464838 0.9 10081996
18:00+20sw575643 0.4 10081084
21:00+13wsw11775 0.8 100915
15 may, sat
sat1500:00+10nne22875 0.1 101113
03:00+9nne22893 0.1 101114
06:00+9nne2290100 0.0 101113
09:00+14ene127497 0.0 1011260
12:00+19sse116049 0.3 1010680
15:00+20ese2250100 2.1 10091544
18:00+20e335398 0.0 10071672
21:00+15n337490 0.1 100727
16 may, sun
sun1600:00+13ese2275100 0.0 100827
03:00+13nw2277100 0.1 100824
06:00+12w1180100 0.0 100711
09:00+14sse118397 0.1 100845
12:00+14ese228499 0.3 1009227
15:00+20sse116160 0.9 1007877
18:00+19wsw23625 1.1 1006924
21:00+14nw12831 2.2 100628
17 may, mon
mon1700:00+11nw11880 0.0 100712
03:00+11w118753 0.0 100714
06:00+10wnw1188100 0.0 100711
09:00+16wsw127279 0.0 1008345
12:00+20ssw33552 0.0 10071062
15:00+23sw344811 0.2 10071853
18:00+23sw355319 0.0 10061487
21:00+16e117998 0.1 100611